TimeEDT,TemperatureF,Dew PointF,Humidity,Sea Level PressureIn,VisibilityMPH,Wind Direction,Wind SpeedMPH,Gust SpeedMPH,PrecipitationIn,Events,Conditions,WindDirDegrees,DateUTC
12:58 AM,43.5,33.3,67,30.28,10.0,NNW,10.4,-,N/A,,Clear,330,2013-09-17 04:58:00
1:58 AM,44.1,33.3,66,30.30,10.0,NNW,9.2,-,N/A,,Clear,340,2013-09-17 05:58:00
2:58 AM,41.4,33.4,73,30.31,10.0,NW,8.1,-,N/A,,Clear,320,2013-09-17 06:58:00
3:58 AM,39.0,33.8,82,30.32,10.0,NW,5.8,-,N/A,,Clear,310,2013-09-17 07:58:00
4:58 AM,38.3,34.0,84,30.33,10.0,NNW,8.1,-,N/A,,Clear,330,2013-09-17 08:58:00
5:58 AM,38.1,33.8,84,30.35,10.0,NW,5.8,-,N/A,,Clear,310,2013-09-17 09:58:00
6:58 AM,38.3,34.7,87,30.38,10.0,NW,6.9,-,N/A,,Clear,320,2013-09-17 10:58:00
7:58 AM,46.2,36.5,69,30.40,10.0,NNW,10.4,-,N/A,,Partly Cloudy,340,2013-09-17 11:58:00
8:58 AM,51.4,35.8,55,30.41,10.0,North,10.4,-,N/A,,Partly Cloudy,360,2013-09-17 12:58:00
9:58 AM,54.9,34.9,47,30.42,10.0,NNE,10.4,18.4,N/A,,Partly Cloudy,30,2013-09-17 13:58:00
10:58 AM,57.6,35.4,43,30.42,10.0,North,12.7,-,N/A,,Partly Cloudy,360,2013-09-17 14:58:00
11:58 AM,59.4,34.3,39,30.41,10.0,Variable,6.9,-,N/A,,Scattered Clouds,0,2013-09-17 15:58:00
12:58 PM,61.5,36.1,39,30.39,10.0,NW,6.9,-,N/A,,Partly Cloudy,320,2013-09-17 16:58:00
1:58 PM,61.7,35.8,38,30.38,10.0,NW,9.2,-,N/A,,Partly Cloudy,310,2013-09-17 17:58:00
2:58 PM,62.4,36.5,38,30.35,10.0,NNW,5.8,-,N/A,,Partly Cloudy,340,2013-09-17 18:58:00
3:58 PM,63.5,38.3,39,30.34,10.0,WSW,4.6,-,N/A,,Partly Cloudy,240,2013-09-17 19:58:00
4:58 PM,63.9,39.7,41,30.32,10.0,WSW,5.8,-,N/A,,Partly Cloudy,250,2013-09-17 20:58:00
5:58 PM,62.6,40.5,44,30.32,10.0,West,4.6,-,N/A,,Clear,270,2013-09-17 21:58:00
6:58 PM,57.9,44.4,61,30.32,10.0,WSW,3.5,-,N/A,,Clear,240,2013-09-17 22:58:00
7:58 PM,53.2,45.9,76,30.32,10.0,West,3.5,-,N/A,,Clear,270,2013-09-17 23:58:00
8:58 PM,53.2,44.6,72,30.32,10.0,SW,2.3,-,N/A,,Clear,230,2013-09-18 00:58:00
9:58 PM,50.2,43.7,78,30.32,10.0,West,5.8,-,N/A,,Clear,260,2013-09-18 01:58:00
10:58 PM,49.6,44.6,83,30.32,10.0,WSW,3.5,-,N/A,,Clear,240,2013-09-18 02:58:00
11:58 PM,49.1,45.3,87,30.31,10.0,West,2.3,-,N/A,,Clear,270,2013-09-18 03:58:00